Location: Unspecified
(64.9000°N, 0.0000°E)
Time: 21:18:34
(UTC+00:00)

Tiros 1 - All Passes

Search period start: 20 June 2019 00:00
Search period end: 30 June 2019 00:00
Orbit: 631 x 664 km, 48.4° (Epoch: 19 June)

Date Brightness Start Highest point End Pass type
(mag) Time Alt. Az. Time Alt. Az. Time Alt. Az.
21 Jun - 02:27:10 10° S 02:27:38 10° S 02:28:06 10° S daylight
23 Jun - 01:37:15 10° S 01:37:44 10° S 01:38:12 10° S daylight
25 Jun - 00:47:21 10° S 00:47:49 10° S 00:48:17 10° S daylight
26 Jun - 01:12:57 10° S 01:13:10 10° S 01:13:22 10° S daylight
26 Jun - 23:57:27 10° S 23:57:54 10° S 23:58:21 10° S daylight
28 Jun - 00:22:45 10° S 00:23:15 10° S 00:23:45 10° S daylight
28 Jun - 23:07:35 10° S 23:07:59 10° S 23:08:23 10° S daylight
29 Jun - 23:32:40 10° SSW 23:33:20 10° S 23:34:01 10° S daylight
